[[{"header":{"parameterUnit":"m.s-1","parameterCategory":1,"la1":30.2991,"la2":30.254,"lo1":-89.0895,"lo2":-89.0444,"dy":0.0017,"dx":0.0017,"nx":28,"ny":28,"refTime":"2025-01-06T03:00:00:Z","depth":0,"parameterNumber":2,"parameterNumberName":"U-component_of_WINDS"},"data":[0,0,0,0,0,0,0,0,0,0,0,0,0,0,0,0,0,0,0,0,0,0,0,0,0,0,0,0,0,0,0,0,0,0,0,0,0,0,0,0,0,0,0,0,0,0,0,0,0,0,0,0,0,0,0,0,0,0,7.0695,7.0696,0,7.0792,7.0793,7.0794,7.0718,7.0715,7.0712,7.0709,7.0804,7.081,7.0815,0,0,0,0,0,0,0,0,0,0,0,0,0,7.0442,7.0447,7.0695,7.0696,7.0697,7.0791,7.0793,7.0794,7.0719,7.0715,7.0711,7.0707,7.0802,7.0809,7.0816,0,0,0,0,0,0,0,0,0,0,0,0,0,7.0547,7.0449,7.0695,7.0671,7.067,7.0791,7.0793,7.0794,7.072,7.0715,7.071,7.0705,7.08,7.0808,7.0816,7.0965,0,0,7.0842,7.0845,0,0,0,0,0,0,0,0,7.0541,7.0556,7.0673,7.0673,7.0672,7.0738,7.0739,7.0851,7.0721,7.0701,7.0709,7.0703,7.0786,7.0795,7.0824,7.0969,7.0973,7.0843,7.0848,7.0851,7.0854,0,0,0,0,0,0,0,7.0534,7.0551,7.0733,7.0675,7.0674,7.0655,7.0664,7.076,7.0769,7.0702,7.0697,7.071,7.0784,7.0816,7.0825,7.0975,7.0842,7.085,7.0855,7.0858,7.1248,7.1253,0,0,0,0,0,0,7.0529,7.0546,7.073,7.0736,7.0593,7.0663,7.0674,7.0722,7.0768,7.077,7.0714,7.0706,7.0804,7.0816,7.0828,7.1006,7.0851,7.0859,7.0864,7.1242,7.1249,7.1255,0,0,0,0,0,0,7.0524,7.0546,7.0726,7.064,7.0661,7.0673,7.0727,7.0726,7.0757,7.0777,7.0778,7.0744,7.0801,7.0817,7.0932,7.1008,7.0863,7.087,7.1236,7.1244,7.1252,7.1361,0,0,0,0,0,0,7.0517,7.0545,7.0602,7.0642,7.0666,7.0829,7.0732,7.0731,7.0772,7.0763,7.0806,7.0808,7.0798,7.092,7.094,7.1017,7.0877,7.1229,7.124,7.1249,7.1351,7.1372,7.139,0,0,0,0,0,7.0508,7.0628,7.0605,7.0628,7.0738,7.0833,7.0847,7.0835,7.0779,7.0836,7.0849,7.0806,7.0997,7.0932,7.0954,7.1035,7.1224,7.1237,7.1248,7.1342,7.1368,7.139,0,0,0,0,0,0,7.0595,7.0632,7.0608,7.0744,7.0786,7.0821,7.0892,7.0862,7.092,7.0909,7.089,7.09,7.1021,7.1039,7.0967,7.1181,7.1101,7.1118,7.1165,7.119,7.1209,7.1202,7.0884,0,0,0,0,0,7.063,7.0706,7.0734,7.0851,7.0874,7.088,7.0921,7.0908,7.0951,7.0968,7.0988,7.1031,7.11,7.1146,7.121,7.1353,7.1362,7.142,7.1439,7.1455,7.147,7.1548,7.1574,7.1294,7.1294,7.1294,0,0,7.0703,7.0733,7.0782,7.087,7.0901,7.0979,7.0895,7.0981,7.1039,7.098,7.1091,7.1108,7.1154,7.1284,7.1342,7.1303,7.155,7.1471,7.1483,7.1489,7.1563,7.159,7.1613,7.1302,7.1301,7.13,0,0,7.0876,7.0906,7.1008,7.1042,7.1091,7.1094,7.1119,7.1159,7.1168,7.1279,7.1237,7.1305,7.1425,7.1459,7.1493,7.1681,7.1645,7.1703,7.1805,7.1881,7.1903,7.1923,7.199,7.2015,7.1718,7.1718,7.1718,0,7.096,7.1077,7.1063,7.1154,7.1194,7.1146,7.1249,7.1281,7.1349,7.1377,7.1333,7.1483,7.151,7.1648,7.1695,7.1723,7.175,7.1697,7.1902,7.1921,7.1939,7.2003,7.2029,7.1725,7.1724,7.1723,7.1722,0,7.1178,7.1261,7.1337,7.1405,7.1454,7.155,7.155,7.16,7.1584,7.1592,7.1706,7.1737,7.1808,7.184,7.1823,7.1976,7.195,7.1904,7.1823,7.1973,7.2033,7.2057,7.1734,7.1732,7.173,7.1728,0,0,7.1407,7.1469,7.1497,7.1528,7.158,7.1643,7.1736,7.1807,7.1851,7.19,7.1978,7.2081,7.2039,7.2077,7.2064,7.2131,7.228,7.2077,7.2078,7.2114,7.2451,7.2485,7.2514,7.2256,7.2261,7.2265,7.2447,0,7.1583,7.1748,7.1739,7.1893,7.1969,7.1926,7.2008,7.2048,7.2059,7.2124,7.2135,7.2209,7.2147,7.217,7.2235,7.2248,7.2347,7.2235,7.2328,7.2332,7.2318,7.2545,7.2582,7.2752,7.247,7.2474,7.2477,0,7.181,7.1869,7.2031,7.2073,7.2105,7.2179,7.2244,7.2307,7.2352,7.2354,7.2398,7.2375,7.2469,7.2387,7.2517,7.2441,7.2479,7.2491,7.2498,7.2505,7.2413,7.2559,7.2806,7.2832,7.2514,7.2511,7.2508,0,7.1962,7.2081,7.2194,7.2222,7.2273,7.2326,7.235,7.239,7.2434,7.2491,7.2519,7.2585,7.2621,7.2673,7.2668,7.2608,7.28,7.2717,7.2805,7.2805,7.2847,7.2844,7.3103,7.2872,7.2871,7.2871,7.287,0,7.2159,7.226,7.2263,7.2332,7.2445,7.2433,7.2544,7.2562,7.2599,7.267,7.2637,7.2704,7.2694,7.2762,7.2758,7.2867,7.2883,7.2888,7.2886,7.2891,7.2891,7.2915,7.2903,7.2877,7.2876,7.2875,7.2873,0,7.2347,7.2353,7.2473,7.2513,7.2525,7.2606,7.264,7.2705,7.2714,7.2805,7.2826,7.2838,7.2916,7.2917,7.3006,7.3004,7.3137,7.3121,7.3122,7.3119,7.3206,7.3198,7.349,7.3528,7.3272,7.3274,7.3277,0,7.2472,7.255,7.2598,7.2645,7.2673,7.2747,7.2793,7.2784,7.2832,7.2891,7.2949,7.3025,7.3085,7.3212,7.3229,7.3297,7.3282,7.338,7.3292,7.3296,7.3284,7.328,7.3287,7.3397,7.34,7.3402,7.3404,0,7.2695,7.2694,7.2761,7.283,7.2885,7.2939,7.2988,7.3027,7.3025,7.3081,7.3161,7.3208,7.33,7.3376,7.3442,7.3465,7.3435,7.3432,7.3456,7.3462,7.3459,7.3462,7.3169,7.3425,7.3423,7.3421,7.342,7.3419,7.2855,7.2923,7.2968,7.3044,7.3081,7.3128,7.3192,7.3209,7.3277,7.3352,7.3343,7.3433,7.3476,7.3563,7.3592,7.3662,7.3627,7.3662,7.3671,7.3679,7.3689,7.3449,7.3674,7.3673,7.3672,7.3672,7.3671,0,7.3076,7.3104,7.3174,7.3245,7.3305,7.3273,7.3326,7.3378,7.3458,7.3502,7.3563,7.3656,7.3729,7.3752,7.3823,7.3875,7.3862,7.3893,7.3889,7.3895,7.3715,7.3688,7.3902,7.3902,7.3902,7.3902,7.3902,7.3902,7.3198,7.3311,7.3316,7.3446,7.3472,7.3561,7.3595,7.3638,7.3673,7.3779,7.3841,7.3856,7.3892,7.3965,7.4031,7.4036,7.4063,7.41,7.41,7.3931,7.3908,7.3886,7.386,7.4107,7.4107,7.4273,7.4275,7.4276]},{"header":{"parameterUnit":"m.s-1","parameterCategory":1,"la1":30.2991,"la2":30.254,"lo1":-89.0895,"lo2":-89.0444,"dy":0.0017,"dx":0.0017,"nx":28,"ny":28,"refTime":"2025-01-06T03:00:00:Z","depth":0,"parameterNumber":3,"parameterNumberName":"V-component_of_WINDS"},"data":[0,0,0,0,0,0,0,0,0,0,0,0,0,0,0,0,0,0,0,0,0,0,0,0,0,0,0,0,0,0,0,0,0,0,0,0,0,0,0,0,0,0,0,0,0,0,0,0,0,0,0,0,0,0,0,0,0,0,-5.6691,-5.6694,0,-5.6962,-5.6965,-5.6968,-5.7013,-5.7011,-5.7009,-5.7007,-5.7289,-5.7298,-5.7308,0,0,0,0,0,0,0,0,0,0,0,0,0,-5.6221,-5.623,-5.6691,-5.6695,-5.6698,-5.6962,-5.6965,-5.6969,-5.7014,-5.7011,-5.7008,-5.7006,-5.7286,-5.7297,-5.7309,0,0,0,0,0,0,0,0,0,0,0,0,0,-5.6452,-5.6232,-5.6691,-5.6752,-5.676,-5.6961,-5.6965,-5.697,-5.7014,-5.7011,-5.7007,-5.7004,-5.7282,-5.7296,-5.731,-5.747,0,0,-5.7355,-5.7361,0,0,0,0,0,0,0,0,-5.6439,-5.6469,-5.674,-5.6748,-5.6758,-5.695,-5.6903,-5.7138,-5.7015,-5.6918,-5.7007,-5.7002,-5.7179,-5.7202,-5.7261,-5.7483,-5.7495,-5.7356,-5.7365,-5.7371,-5.7375,0,0,0,0,0,0,0,-5.6423,-5.6458,-5.6799,-5.6744,-5.6755,-5.6769,-5.6798,-5.6948,-5.7065,-5.6926,-5.693,-5.6961,-5.7184,-5.7246,-5.7268,-5.7499,-5.7355,-5.7368,-5.7377,-5.7383,-5.7872,-5.7876,0,0,0,0,0,0,-5.6395,-5.6444,-5.679,-5.6807,-5.6586,-5.678,-5.6812,-5.6892,-5.7064,-5.7086,-5.6964,-5.6962,-5.7223,-5.7251,-5.7278,-5.7479,-5.7371,-5.7384,-5.7393,-5.7868,-5.7873,-5.7877,0,0,0,0,0,0,-5.6385,-5.6425,-5.6779,-5.6627,-5.6673,-5.6792,-5.6881,-5.6899,-5.6962,-5.7092,-5.7114,-5.7006,-5.7222,-5.7257,-5.7423,-5.7489,-5.7391,-5.7404,-5.7863,-5.7869,-5.7875,-5.7881,0,0,0,0,0,0,-5.6371,-5.6421,-5.6481,-5.6628,-5.6681,-5.6917,-5.6885,-5.6907,-5.6987,-5.6987,-5.7138,-5.7159,-5.7222,-5.7401,-5.7437,-5.7508,-5.7416,-5.7857,-5.7866,-5.7873,-5.7875,-5.7887,-5.7896,0,0,0,0,0,-5.6354,-5.6472,-5.6484,-5.6525,-5.6758,-5.6921,-5.6951,-5.7019,-5.6992,-5.7055,-5.7139,-5.7154,-5.7476,-5.7417,-5.7459,-5.7534,-5.7853,-5.7863,-5.7873,-5.787,-5.7884,-5.7896,0,0,0,0,0,0,-5.6331,-5.6492,-5.6507,-5.6675,-5.6784,-5.6928,-5.7009,-5.7031,-5.7151,-5.7147,-5.7228,-5.7262,-5.7423,-5.7496,-5.7427,-5.7701,-5.7663,-5.7681,-5.7647,-5.7662,-5.7672,-5.7652,-5.7428,0,0,0,0,0,-5.6345,-5.6462,-5.6597,-5.6733,-5.6787,-5.6888,-5.6962,-5.7005,-5.7122,-5.7168,-5.7264,-5.7378,-5.7506,-5.7587,-5.7711,-5.7886,-5.7922,-5.7959,-5.797,-5.7978,-5.7993,-5.8094,-5.8114,-5.7909,-5.7909,-5.7909,0,0,-5.6377,-5.6479,-5.6548,-5.6731,-5.682,-5.6943,-5.6927,-5.7055,-5.7148,-5.7188,-5.735,-5.7425,-5.7558,-5.773,-5.781,-5.7795,-5.8057,-5.799,-5.7995,-5.8007,-5.8106,-5.8126,-5.8143,-5.7916,-5.7914,-5.7913,0,0,-5.6496,-5.6584,-5.6708,-5.6798,-5.6933,-5.7001,-5.7031,-5.7173,-5.7224,-5.7387,-5.7422,-5.7534,-5.775,-5.7844,-5.7921,-5.808,-5.81,-5.8118,-5.8174,-5.8272,-5.8288,-5.8303,-5.8362,-5.8382,-5.8133,-5.8133,-5.8133,0,-5.6518,-5.6701,-5.677,-5.6898,-5.698,-5.7022,-5.715,-5.7235,-5.7404,-5.7461,-5.7441,-5.7716,-5.7808,-5.8004,-5.8043,-5.8103,-5.8142,-5.8102,-5.828,-5.8295,-5.831,-5.8368,-5.839,-5.8135,-5.8134,-5.8134,-5.8134,0,-5.6723,-5.685,-5.6935,-5.7096,-5.7187,-5.7315,-5.7406,-5.7491,-5.7527,-5.7598,-5.7767,-5.7879,-5.8028,-5.8078,-5.8115,-5.8281,-5.8268,-5.8263,-5.8227,-5.833,-5.8386,-5.8408,-5.8137,-5.8136,-5.8136,-5.8135,0,0,-5.6834,-5.7034,-5.7064,-5.714,-5.7293,-5.7394,-5.7526,-5.7671,-5.7743,-5.7859,-5.7974,-5.8158,-5.8156,-5.8242,-5.8291,-5.8376,-5.85,-5.8362,-5.8367,-5.8386,-5.8693,-5.8697,-5.8721,-5.8514,-5.8518,-5.8522,-5.8683,0,-5.6973,-5.7206,-5.7274,-5.7472,-5.7592,-5.7636,-5.7751,-5.786,-5.793,-5.8045,-5.8123,-5.8253,-5.8239,-5.8292,-5.8379,-5.8466,-5.8563,-5.8455,-5.8624,-5.8629,-5.859,-5.875,-5.8753,-5.89,-5.8705,-5.8709,-5.8711,0,-5.7166,-5.7285,-5.7495,-5.7637,-5.769,-5.7791,-5.7932,-5.804,-5.8165,-5.8211,-5.8309,-5.8351,-5.8494,-5.845,-5.8649,-5.8575,-5.8648,-5.8702,-5.871,-5.8729,-5.8677,-5.8775,-5.8948,-5.897,-5.8746,-5.8743,-5.8741,0,-5.7228,-5.7442,-5.7596,-5.7659,-5.7827,-5.7899,-5.7973,-5.8095,-5.8179,-5.8303,-5.8359,-5.8497,-5.8574,-5.8682,-5.8762,-5.8722,-5.8956,-5.8917,-5.9,-5.8998,-5.9048,-5.9043,-5.9236,-5.9092,-5.9092,-5.9092,-5.9091,0,-5.7377,-5.7505,-5.7627,-5.7721,-5.7867,-5.7945,-5.8088,-5.8164,-5.8273,-5.8386,-5.8433,-5.8538,-5.8636,-5.8756,-5.8819,-5.8977,-5.901,-5.9053,-5.9069,-5.905,-5.9045,-5.91,-5.9093,-5.9097,-5.9096,-5.9095,-5.9094,0,-5.7472,-5.7558,-5.7729,-5.7875,-5.7915,-5.8016,-5.8143,-5.8238,-5.8311,-5.8454,-5.8492,-5.8607,-5.8751,-5.8841,-5.9023,-5.9066,-5.924,-5.9251,-5.9197,-5.9205,-5.9283,-5.9275,-5.9519,-5.9556,-5.9385,-5.9387,-5.9388,0,-5.7561,-5.766,-5.7817,-5.7895,-5.797,-5.8095,-5.8182,-5.8264,-5.8353,-5.8505,-5.8584,-5.873,-5.8851,-5.9079,-5.9181,-5.9322,-5.9338,-5.9414,-5.936,-5.9339,-5.9342,-5.9336,-5.9348,-5.9423,-5.9425,-5.9426,-5.9427,0,-5.7713,-5.7751,-5.7872,-5.801,-5.8112,-5.8225,-5.8337,-5.84,-5.8502,-5.86,-5.8747,-5.8841,-5.9028,-5.9174,-5.9325,-5.9404,-5.9434,-5.9443,-5.947,-5.9452,-5.9418,-5.944,-5.9223,-5.9437,-5.9436,-5.9435,-5.9435,-5.9434,-5.7809,-5.79,-5.8026,-5.8161,-5.8254,-5.8359,-5.8457,-5.8543,-5.8666,-5.8824,-5.8866,-5.9021,-5.9148,-5.9353,-5.9436,-5.9561,-5.955,-5.9589,-5.9599,-5.9607,-5.961,-5.9397,-5.9588,-5.9588,-5.9588,-5.9588,-5.9587,0,-5.7965,-5.8048,-5.8171,-5.8328,-5.8435,-5.8452,-5.8579,-5.8668,-5.8803,-5.8919,-5.9038,-5.9209,-5.9352,-5.9465,-5.9613,-5.9691,-5.9709,-5.9727,-5.9723,-5.9742,-5.9609,-5.9572,-5.9711,-5.9711,-5.9711,-5.9711,-5.9711,-5.971,-5.8058,-5.8214,-5.8269,-5.8473,-5.8557,-5.8707,-5.8779,-5.8878,-5.8971,-5.9159,-5.9277,-5.935,-5.9467,-5.9624,-5.9757,-5.9787,-5.984,-5.9857,-5.989,-5.9764,-5.975,-5.9738,-5.9703,-5.9867,-5.9867,-6.0012,-6.0013,-6.0014]}]]